Preview of NWS' New Version of Forecast
This preview is not operational and should not be used for support decisions.

Regional Weather Roundup (RWR)

Issued by National Weather Service (NWS)

                            
000
ASUS43 KDMX 211501
RWRIA 

WEATHER ROUNDUP FOR IOWA
NATIONAL WEATHER SERVICE DES MOINES IA
900 AM CST THU FEB 21 2019

NOTE: "FAIR" INDICATES FEW OR NO CLOUDS BELOW 12,000 FEET WITH NO
SIGNIFICANT WEATHER AND/OR OBSTRUCTIONS TO VISIBILITY.

* - THESE STATIONS ARE NOT NWS STATIONS...THUS NOT UNDER NWS
QUALITY CONTROL.  THEY ALSO DO NOT REPORT WEATHER SUCH 
AS PRECIPITATION OR FOG.  

IAZ001>003-012>014-020>022-031>034-043>046-211600-
   NORTHWEST IOWA
  
CITY           SKY/WX    TMP DP  RH WIND       PRES   REMARKS
CARROLL *      CLOUDY     9   7  92 W5        30.18R WCI   0          
CHEROKEE *     CLOUDY     4   3  95 CALM      30.17R FOG              
DENISON *      CLOUDY     7   5  92 CALM      30.19R FOG              
LE MARS *      CLOUDY     1   0  92 S6        30.18R FOG     WCI -10  
ORANGE CITY *  CLOUDY     3   1  92 CALM      30.14R                  
SHELDON *      CLOUDY    -2  -2 100 SW6       30.13R FOG     WCI -14  
SIOUX CITY     CLOUDY    -1  -1 100 CALM      30.19R FOG              
SPENCER        CLOUDY     5   0  79 W8        30.13R WCI  -8          
STORM LAKE *   CLOUDY     5   5 100 SW10      30.15R FOG     WCI -10  
$$
 
IAZ055>058-069>071-079>083-090>094-211600-
   SOUTHWEST IOWA
  
CITY           SKY/WX    TMP DP  RH WIND       PRES   REMARKS
ATLANTIC *     CLOUDY     1   1 100 N6        30.18R FOG     WCI -10  
AUDUBON *      CLOUDY     5   1  85 CALM      30.16S FOG              
CLARINDA *     CLOUDY     5   1  85 CALM      30.23R                  
COUNCIL BLFS * CLOUDY    10  10 100 N5        30.16R FOG     WCI   2  
CRESTON *      CLOUDY    14  10  85 NW5       30.17R WCI   6          
HARLAN  *      CLOUDY     5   3  92 CALM      30.18R FOG              
LAMONI         CLOUDY    17  11  77 S3        30.18R                  
RED OAK *      MOSUNNY    5   1  85 NE3       30.19R FOG              
SHENANDOAH *   CLOUDY     3   1  92 CALM      30.21R                  
$$
 
IAZ047>049-059>061-072>074-084-211600-
   CENTRAL IOWA
  
CITY           SKY/WX    TMP DP  RH WIND       PRES   REMARKS
AMES           CLOUDY     7   5  91 MISG      30.18R FOG              
ANKENY *       CLOUDY    18  12  79 W3        30.20R                  
BOONE *        CLOUDY    12  10  92 W7        30.16R WCI   2          
CHARITON *     MOSUNNY   12  10  92 S7        30.19R WCI   2          
DES MOINES     CLOUDY    16  12  84 CALM      30.18R                  
GRINNELL*      CLOUDY    13  12  93 W7        30.19R FOG     WCI   3  
KNOXVILLE *    CLOUDY    16  16 100 NW5       30.19R WCI   9          
MARSHALLTOWN   CLOUDY     7   6  96 W8        30.17R FOG     WCI  -6  
NEWTON *       CLOUDY    14  12  92 W6        30.19R FOG     WCI   5  
PELLA *        CLOUDY    19  13  76 W5        30.21R WCI  12          
PERRY *        FAIR       6   4  91 W7        30.18S FOG     WCI  -6  
$$
 
IAZ004>006-015-016-023>025-035-036-211600-
   NORTH CENTRAL IOWA
  
CITY           SKY/WX    TMP DP  RH WIND       PRES   REMARKS
ALGONA *       CLOUDY     5   3  92 SW10      30.11R WCI -10          
CLARION *      CLOUDY     1  -2  85 S7        30.16R FOG     WCI -11  
ESTHERVILLE    CLOUDY     3   0  87 W10       30.10R WCI -12          
FORT DODGE *   CLOUDY    15  11  83 SW5       30.18R WCI   8          
MASON CITY     CLOUDY     7   4  87 W12       30.12R WCI  -8          
FOREST CITY *  FAIR      10   7  85 NW6       30.11R WCI   1          
IOWA FALLS *   FAIR       7   4  89 SW8       30.17R WCI  -6          
$$

IAZ007>011-017>019-026>030-037>042-050>054-066-211600-
   NORTHEAST IOWA
  
CITY           SKY/WX    TMP DP  RH WIND       PRES   REMARKS
CEDAR RAPIDS   FAIR      10   8  92 SW8       30.18R FOG     WCI  -2  
CHARLES CITY * FAIR       9   5  85 W10       30.12R WCI  -6          
CLINTON *      FAIR      20  16  84 W9        30.19R WCI   9          
DECORAH *      FAIR      10   9  92 W8        30.10R WCI  -1          
DUBUQUE        FAIR      14   8  77 W10       30.13R WCI   1          
OELWEIN *      FAIR       7   7 100 W5        30.15R WCI  -2          
WATERLOO       FAIR      13   7  77 W10       30.16R WCI   0          
$$
 
IAZ064-065-067-068-078-211600-
   EAST CENTRAL IOWA
  
CITY           SKY/WX    TMP DP  RH WIND       PRES   REMARKS
DAVENPORT      FAIR      20  14  77 W9        30.21R WCI   9          
IOWA CITY      FAIR      13  12  96 SW3       30.23R FOG              
MT. PLEASANT * CLOUDY    28  19  69 NW5       30.23R WCI  23          
MUSCATINE *    FAIR      23  16  74 W7        30.24R WCI  15          
QUAD CITIES    FAIR      26  18  71 W8        30.20R WCI  18          
$$
 
IAZ062-063-075>077-085>089-095>099-211600-
   SOUTHEAST IOWA
  
CITY           SKY/WX    TMP DP  RH WIND       PRES   REMARKS
BURLINGTON     MOSUNNY   25  17  72 NW3       30.22R                  
FAIRFIELD *    CLOUDY    21  14  73 W6        30.22R WCI  14          
FORT MADISON * CLOUDY    25  19  80 NW5       30.23R WCI  19          
KEOKUK *       CLOUDY    27  19  74 W3        30.23R                  
OSKALOOSA *    FAIR      13   9  85 S3        30.22R FOG              
OTTUMWA        CLOUDY    16  13  88 SW5       30.21R WCI   9          
WASHINGTON *   CLOUDY    19  16  86 W7        30.23R WCI  10          
$$

ABBREVIATIONS USED IN REMARKS
   TC - TEMPERATURES IN CELSIUS
  WCI - WIND CHILL INDEX
   HX - HEAT INDEX
  VSB - VISIBILITY  
$$